Location: Bagnara
(41.0500°N, 14.7833°E)
Time: 13:39:58
(UTC+00:00)

Cosmos 1242 Rocket - Pass Details

Date: 20 June 2021
Orbit: 446 x 483 km, 81.2° (Epoch: 30 July)

Event Time Altitude Azimuth Distance (km) Brightness Sun altitude
Rises 00:20:18 0° 354° (N) 2,525 7.3 -23.0°
Reaches altitude 10° 00:22:25 10° 359° (N) 1,648 6.2 -22.9°
Maximum altitude 00:25:58 56° 79° (ENE) 572 3.0 -22.7°
Enters shadow 00:25:59 56° 80° (E) 572 2.9 -22.7°
